Tracking 19969 objects as of 13-Nov-2019
Live streaming from Space Station
objects crossing your sky now
Track the group of recently launched Starlink satellites

NOAA 16 DEB

Track NOAA 16 DEB now!
10-day predictions


NORAD ID: 41262
Int'l Code: 2000-055FN
Perigee: 852.7 km
Apogee: 950.2 km
Inclination: 98.9 °
Period: 102.9 minutes
Semi major axis: 7272 km
RCS: Unknown
Launch date: September 21, 2000
Source: United States (US)
Launch site: AIR FORCE WESTERN TEST RANGE (AFWTR)

Note: This is SATELLITE DEBRIS
aabbcc
Your satellite tracking list
Your tracking list is empty




NASA's NSSDC Master Catalog

Two Line Element Set (TLE):
1 41262U 00055FN  19315.94220901 +.00000861 +00000-0 +60463-3 0  9998
2 41262 098.8821 355.6351 0067015 249.9665 109.4276 13.99855711200584
Source of the keplerian elements: AFSPC